Location: ?????????
(54.7630°N, 39.4991°E)
Time: 07:12:22
(UTC+00:00)

CZ-2C R/B - Pass Details

Date: 14 April 2026
Orbit: 702 x 901 km, 98.2° (Epoch: 12 May)

Event Time Altitude Azimuth Distance (km) Brightness Sun altitude
Rises 21:29:22 0° 16° (NNE) 3,186 7.5 -25.6°
Reaches altitude 10° 21:31:37 10° 18° (NNE) 2,283 6.4 -25.5°
Maximum altitude 21:36:39 77° 104° (ESE) 805 2.9 -25.5°
Enters shadow 21:36:56 74° 139° (SE) 815 2.9 -25.5°
